Regional Weather Roundup
Issued by NWS

Home | Current Version | Previous Version | Graphics & Text | Print | Product List | Glossary On
Versions: 1 2 3 4 5 6 7 8 9 10 11 12 13 14 15 16 17 18 19 20 21 22 23 24 25 26 27 28 29 30 31 32 33 34 35 36 37 38 39 40 41 42 43 44 45 46 47 48 49 50
884
ASUS43 KLSX 171407
RWRMO

WEATHER SUMMARY FOR MISSOURI
NATIONAL WEATHER SERVICE SPRINGFIELD MO
800 AM CST SAT FEB 17 2018

NOTE: "FAIR" INDICATES FEW OR NO CLOUDS BELOW 12,000 FEET WITH NO
       SIGNIFICANT WEATHER AND/OR OBSTRUCTIONS TO VISIBILITY.
       CURRENT SKY AND/OR WEATHER CONDITIONS ARE NOT AVAILABLE FOR
       CHILLICOTHE AND FARMINGTON.

MOZ001>031-035>038-043-044-053-054-171500-
...NORTHERN AND WESTERN MISSOURI...

CITY           SKY/WX    TMP DP  RH WIND       PRES   REMARKS
KANSAS CTY INT DRIZZLE   32  31  96 S10       29.97R WCI  24
KANSAS C DTWN  MIX PCPN  35  31  85 SW9       29.99R FOG     WCI  28
LEE`S SUMMIT   LGT SNOW  33  32  96 SW12      29.98R FOG     WCI  24
ST JOSEPH      CLOUDY    34  24  67 SW13      29.97R WCI  25
CHILLICOTHE      N/A     32  18  56 S7        29.98S WCI  26
KIRKSVILLE     CLOUDY    30  22  72 S12       29.98F WCI  20

$$
MOZ066>068-077>081-088>096-101>105-171500-
...SOUTHWEST MISSOURI...

CITY           SKY/WX    TMP DP  RH WIND       PRES   REMARKS
SPRINGFIELD    CLOUDY    37  35  92 S8        30.00R
JOPLIN         CLOUDY    38  38 100 VRB5      30.04R
BRANSON        LGT RAIN  36  36 100 SE17G23   29.95F FOG     WCI  25

$$
MOZ032>034-039>042-045>050-055>058-069>072-171500-
...CENTRAL MISSOURI...

CITY           SKY/WX    TMP DP  RH WIND       PRES   REMARKS
COLUMBIA       LGT SNOW  32  31  96 S12       30.03R VSB 3/4 WCI  23
JEFFERSON CITY LGT SNOW  33  31  92 SE6       30.06R FOG     WCI  28
ROLLA          LGT SNOW  31  30  96 SE10      30.04F VSB 3/4 WCI  22
SEDALIA        MIX PCPN  34  34 100 S10       30.01F FOG     WCI  26
WHITEMAN AFB   DRIZZLE   33  32  93 S12       29.94F WCI  25
WARRENSBURG    DRIZZLE   34  32  93 S7        29.99S WCI  28
OSAGE BEACH    LGT RAIN  33  32  96 SE8       30.05S FOG     WCI  26

$$
MOZ051-052-059>065-171500-
...EAST CENTRAL MISSOURI...

CITY           SKY/WX    TMP DP  RH WIND       PRES   REMARKS
ST LOUIS INTL  LGT SNOW  32  32 100 SE10      30.09F VSB 1   WCI  24
SPIRIT OF STL  LGT SNOW  33  31  92 SE7       30.09S FOG     WCI  27
ST CHARLES     SNOW      32  31  96 SE7       30.10R VSB 1/2 WCI  26

$$
MOZ072>076-082>087-097>100-106>115-171500-
...SOUTH CENTRAL AND SOUTHEAST MISSOURI...

CITY           SKY/WX    TMP DP  RH WIND       PRES   REMARKS
CAPE GIRARDEAU LGT SNOW  33  31  92 CALM      30.15R FOG
FARMINGTON     LGT SNOW  32  30  93 SE5       30.11R VSB 3/4 WCI  27
POPLAR BLUFF   LGT RAIN  35  34  96 E5        30.12R FOG
WEST PLAINS    LGT RAIN  34  33  96 E7        30.04F FOG     WCI  28

$$



USA.gov is the U.S. government's official web portal to all federal, state and local government web resources and services.